| time (UTC) | temp F | wind direction | speed knots | gust knots | rain 1hr in | rain 24hr in | rain mn in | humidity % | barometer mb |
| 20260508101502 | 74 | 176 | 2.6 | 5.2 | 0.00 | 0.00 | 0.00 | 39 | 1012.5 |
| 20260508100501 | 73 | 211 | 0.9 | 4.3 | 0.00 | 0.00 | 0.00 | 40 | 1012.9 |
| 20260508095500 | 73 | 204 | 0.9 | 6.1 | 0.00 | 0.00 | 0.00 | 39 | 1012.9 |
| 20260508094459 | 73 | 143 | 2.6 | 6.1 | 0.00 | 0.00 | 0.00 | 38 | 1013.2 |
| 20260508093458 | 74 | 119 | 1.7 | 4.3 | 0.00 | 0.00 | 0.00 | 39 | 1013.2 |
| 20260508092457 | 74 | 132 | 1.7 | 6.1 | 0.00 | 0.00 | 0.00 | 39 | 1013.2 |
| 20260508091456 | 75 | 199 | 2.6 | 6.1 | 0.00 | 0.00 | 0.00 | 39 | 1013.2 |
| 20260508090455 | 74 | 328 | 1.7 | 6.1 | 0.00 | 0.00 | 0.00 | 41 | 1013.2 |
| 20260508085454 | 74 | 173 | 0.9 | 6.1 | 0.00 | 0.00 | 0.00 | 43 | 1013.2 |
| 20260508084449 | 74 | 111 | 1.7 | 4.3 | 0.00 | 0.00 | 0.00 | 44 | 1013.2 |
| 20260508083447 | 73 | 69 | 0.9 | 5.2 | 0.00 | 0.00 | 0.00 | 46 | 1013.2 |
| 20260508082446 | 73 | 154 | 1.7 | 6.1 | 0.00 | 0.00 | 0.00 | 45 | 1013.5 |
| 20260508081343 | 72 | 174 | 1.7 | 5.2 | 0.00 | 0.00 | 0.00 | 46 | 1013.5 |
| 20260508080341 | 72 | 211 | 1.7 | 5.2 | 0.00 | 0.00 | 0.00 | 47 | 1013.5 |
| 20260508075340 | 72 | 174 | 1.7 | 6.1 | 0.00 | 0.00 | 0.00 | 47 | 1013.5 |
| 20260508074339 | 71 | 197 | 1.7 | 6.1 | 0.00 | 0.00 | 0.00 | 49 | 1013.5 |
| 20260508073338 | 71 | 184 | 2.6 | 6.1 | 0.00 | 0.00 | 0.00 | 46 | 1013.5 |
| 20260508072337 | 71 | 177 | 1.7 | 4.3 | 0.00 | 0.00 | 0.00 | 50 | 1013.5 |
| 20260508071336 | 70 | 161 | 1.7 | 4.3 | 0.00 | 0.00 | 0.00 | 50 | 1013.5 |
| 20260508070336 | 70 | 118 | 1.7 | 2.6 | 0.00 | 0.00 | 0.00 | 53 | 1013.5 |
| 20260508065335 | 68 | 147 | 0.9 | 5.2 | 0.00 | 0.00 | 0.00 | 55 | 1013.5 |
| 20260508064303 | 67 | 173 | 1.7 | 5.2 | 0.00 | 0.00 | 0.00 | 56 | 1013.5 |
| 20260508063231 | 66 | 171 | 0.9 | 2.6 | 0.00 | 0.00 | 0.00 | 58 | 1013.5 |
| 20260508062158 | 65 | 235 | 1.7 | 4.3 | 0.00 | 0.00 | 0.00 | 61 | 1013.5 |
| 20260508061157 | 65 | 178 | 0.9 | 4.3 | 0.00 | 0.00 | 0.00 | 61 | 1013.5 |
| 20260508060156 | 64 | 135 | 0.9 | 3.5 | 0.00 | 0.00 | 0.00 | 64 | 1013.5 |
| 20260508055156 | 63 | 186 | 1.7 | 4.3 | 0.00 | 0.00 | 0.00 | 66 | 1013.5 |
| 20260508054155 | 62 | 166 | 1.7 | 3.5 | 0.00 | 0.00 | 0.00 | 66 | 1013.5 |
| 20260508053141 | 61 | 106 | 0.9 | 2.6 | 0.00 | 0.00 | 0.00 | 68 | 1013.5 |
| 20260508052140 | 61 | 179 | 0.9 | 7.8 | 0.00 | 0.00 | 0.00 | 67 | 1013.5 |
| 20260508051138 | 61 | 202 | 2.6 | 7.8 | 0.00 | 0.00 | 0.00 | 67 | 1013.5 |
| 20260508050134 | 61 | 214 | 0.9 | 5.2 | 0.00 | 0.00 | 0.00 | 68 | 1013.5 |
| 20260508045133 | 60 | 213 | 0.9 | 2.6 | 0.00 | 0.00 | 0.00 | 69 | 1013.5 |
| 20260508044132 | 59 | 221 | 0.9 | 2.6 | 0.00 | 0.00 | 0.00 | 70 | 1013.5 |
| 20260508043129 | 58 | 118 | 0.9 | 2.6 | 0.00 | 0.00 | 0.00 | 72 | 1013.5 |
| 20260508042057 | 57 | 249 | 0.9 | 2.6 | 0.00 | 0.00 | 0.00 | 73 | 1013.5 |
| 20260508041056 | 57 | 262 | 0.9 | 2.6 | 0.00 | 0.00 | 0.00 | 74 | 1013.5 |
| 20260508040042 | 56 | 232 | 0.9 | 7.0 | 0.00 | 0.00 | 0.00 | 75 | 1013.2 |
| 20260508035040 | 56 | 215 | 0.0 | 5.2 | 0.00 | 0.00 | 0.00 | 75 | 1013.2 |
| 20260508034039 | 56 | 184 | 1.7 | 2.6 | 0.00 | 0.00 | 0.00 | 75 | 1013.2 |
| 20260508033039 | 56 | 119 | 0.9 | 2.6 | 0.00 | 0.00 | 0.00 | 74 | 1013.2 |
| 20260508032038 | 56 | 233 | 0.9 | 2.6 | 0.00 | 0.00 | 0.00 | 74 | 1013.2 |
| 20260508012740 | 57 | 216 | 0.9 | 3.5 | 0.00 | 0.00 | 0.00 | 68 | 1013.2 |
| 20260508011739 | 58 | 3 | 0.9 | 3.5 | 0.00 | 0.00 | 0.00 | 68 | 1013.2 |
| 20260508010707 | 58 | 151 | 0.0 | 3.5 | 0.00 | 0.00 | 0.00 | 67 | 1013.5 |
| 20260508005706 | 58 | 165 | 0.9 | 3.5 | 0.00 | 0.00 | 0.00 | 66 | 1013.5 |
| 20260508004705 | 58 | 194 | 1.7 | 2.6 | 0.00 | 0.00 | 0.00 | 65 | 1013.5 |
| 20260508003704 | 59 | 277 | 0.9 | 1.7 | 0.00 | 0.00 | 0.00 | 65 | 1013.5 |
| 20260508002703 | 59 | 278 | 0.9 | 6.1 | 0.00 | 0.00 | 0.00 | 63 | 1013.5 |
| 20260508001702 | 60 | 212 | 0.0 | 6.1 | 0.00 | 0.00 | 0.00 | 62 | 1013.5 |
| 20260508000701 | 60 | 196 | 0.9 | 2.6 | 0.00 | 0.00 | 0.00 | 62 | 1013.5 |
| 20260507235700 | 60 | 220 | 1.7 | 2.6 | 0.00 | 0.00 | 0.00 | 60 | 1013.5 |
| 20260507234658 | 60 | 138 | 0.9 | 4.3 | 0.00 | 0.00 | 0.00 | 59 | 1013.5 |
| 20260507233657 | 61 | 154 | 0.9 | 4.3 | 0.00 | 0.00 | 0.00 | 59 | 1013.9 |
| 20260507232656 | 61 | 221 | 1.7 | 4.3 | 0.00 | 0.00 | 0.00 | 58 | 1013.9 |
| 20260507231655 | 61 | 245 | 1.7 | 4.3 | 0.00 | 0.00 | 0.00 | 57 | 1013.9 |
| 20260507230654 | 62 | 141 | 0.9 | 3.5 | 0.00 | 0.00 | 0.00 | 56 | 1013.9 |
| 20260507225653 | 62 | 201 | 1.7 | 4.3 | 0.00 | 0.00 | 0.00 | 55 | 1013.9 |
| 20260507224652 | 62 | 157 | 0.9 | 2.6 | 0.00 | 0.00 | 0.00 | 54 | 1013.9 |
| 20260507223651 | 63 | 210 | 0.9 | 4.3 | 0.00 | 0.00 | 0.00 | 54 | 1013.9 |
| 20260507222651 | 63 | 249 | 0.0 | 4.3 | 0.00 | 0.00 | 0.00 | 53 | 1013.9 |
| 20260507221649 | 64 | 144 | 0.9 | 1.7 | 0.00 | 0.00 | 0.00 | 52 | 1013.9 |
| 20260507220648 | 64 | 216 | 0.9 | 2.6 | 0.00 | 0.00 | 0.00 | 51 | 1013.9 |
| 20260507215647 | 64 | 270 | 0.0 | 2.6 | 0.00 | 0.00 | 0.00 | 50 | 1013.9 |
| 20260507214646 | 64 | 149 | 0.9 | 2.6 | 0.00 | 0.00 | 0.00 | 50 | 1013.9 |
| 20260507213645 | 65 | 148 | 0.9 | 2.6 | 0.00 | 0.00 | 0.00 | 49 | 1013.9 |
| 20260507212635 | 65 | 219 | 0.9 | 3.5 | 0.00 | 0.00 | 0.00 | 48 | 1013.9 |
| 20260507211634 | 66 | 235 | 0.9 | 5.2 | 0.00 | 0.00 | 0.00 | 47 | 1013.5 |
| 20260507210633 | 66 | 217 | 0.9 | 5.2 | 0.00 | 0.00 | 0.00 | 46 | 1013.5 |
| 20260507205633 | 66 | 163 | 1.7 | 5.2 | 0.00 | 0.00 | 0.00 | 45 | 1013.5 |
| 20260507203557 | 67 | 211 | 0.9 | 4.3 | 0.00 | 0.00 | 0.00 | 44 | 1013.2 |
| 20260507202525 | 67 | 163 | 0.9 | 4.3 | 0.00 | 0.00 | 0.00 | 43 | 1013.2 |
| 20260507201524 | 67 | 104 | 0.9 | 2.6 | 0.00 | 0.00 | 0.00 | 43 | 1013.2 |
| 20260507200452 | 68 | 88 | 0.9 | 3.5 | 0.00 | 0.00 | 0.00 | 42 | 1013.2 |
| 20260507195420 | 68 | 162 | 0.9 | 1.7 | 0.00 | 0.00 | 0.00 | 41 | 1013.2 |
| 20260507194419 | 68 | 295 | 0.9 | 1.7 | 0.00 | 0.00 | 0.00 | 41 | 1012.9 |
| 20260507193418 | 69 | 113 | 0.9 | 2.6 | 0.00 | 0.00 | 0.00 | 40 | 1012.9 |
| 20260507191310 | 69 | 172 | 0.9 | 2.6 | 0.00 | 0.00 | 0.00 | 40 | 1012.9 |
| 20260507190238 | 70 | 260 | 0.9 | 3.5 | 0.00 | 0.00 | 0.00 | 39 | 1012.5 |
| 20260507185227 | 70 | 221 | 1.7 | 4.3 | 0.00 | 0.00 | 0.00 | 38 | 1012.5 |
| 20260507184226 | 70 | 201 | 0.0 | 2.6 | 0.00 | 0.00 | 0.00 | 38 | 1012.5 |
| 20260507183225 | 71 | 256 | 0.9 | 2.6 | 0.00 | 0.00 | 0.00 | 37 | 1012.5 |
| 20260507182224 | 71 | 217 | 0.9 | 3.5 | 0.00 | 0.00 | 0.00 | 37 | 1012.5 |
| 20260507181049 | 72 | 85 | 0.9 | 4.3 | 0.00 | 0.00 | 0.00 | 37 | 1012.2 |
| 20260507180049 | 72 | 157 | 1.7 | 4.3 | 0.00 | 0.00 | 0.00 | 36 | 1012.2 |
| 20260507175048 | 73 | 225 | 1.7 | 2.6 | 0.00 | 0.00 | 0.00 | 35 | 1011.9 |
| 20260507174047 | 73 | 127 | 1.7 | 3.5 | 0.00 | 0.00 | 0.00 | 35 | 1011.9 |
| 20260507173046 | 73 | 214 | 1.7 | 2.6 | 0.00 | 0.00 | 0.00 | 34 | 1011.9 |
| 20260507172045 | 74 | 183 | 1.7 | 2.6 | 0.00 | 0.00 | 0.00 | 33 | 1011.5 |
| 20260507171044 | 74 | 110 | 1.7 | 5.2 | 0.00 | 0.00 | 0.00 | 33 | 1011.5 |
| 20260507170043 | 75 | 213 | 1.7 | 3.5 | 0.00 | 0.00 | 0.00 | 32 | 1011.5 |
| 20260507165042 | 76 | 143 | 0.9 | 3.5 | 0.00 | 0.00 | 0.00 | 31 | 1011.5 |
| 20260507164041 | 77 | 211 | 0.9 | 4.3 | 0.00 | 0.00 | 0.00 | 31 | 1011.5 |
| 20260507163040 | 77 | 212 | 0.9 | 5.2 | 0.00 | 0.00 | 0.00 | 30 | 1011.2 |
| 20260507162039 | 79 | 216 | 1.7 | 5.2 | 0.00 | 0.00 | 0.00 | 29 | 1011.2 |
| 20260507161038 | 81 | 198 | 0.9 | 3.5 | 0.00 | 0.00 | 0.00 | 28 | 1011.2 |
| 20260507160037 | 82 | 200 | 0.9 | 5.2 | 0.00 | 0.00 | 0.00 | 27 | 1011.2 |
| 20260507155036 | 83 | 146 | 0.9 | 6.1 | 0.00 | 0.00 | 0.00 | 26 | 1011.2 |
| 20260507154035 | 83 | 209 | 1.7 | 6.1 | 0.00 | 0.00 | 0.00 | 25 | 1011.2 |
| 20260507153034 | 84 | 164 | 1.7 | 5.2 | 0.00 | 0.00 | 0.00 | 25 | 1011.2 |
| 20260507151033 | 84 | 160 | 1.7 | 3.5 | 0.00 | 0.00 | 0.00 | 25 | 1011.5 |
| 20260507150032 | 85 | 176 | 0.9 | 5.2 | 0.00 | 0.00 | 0.00 | 26 | 1011.2 |
| 20260507145032 | 85 | 217 | 0.9 | 5.2 | 0.00 | 0.00 | 0.00 | 25 | 1011.2 |
| 20260507144031 | 86 | 209 | 0.9 | 3.5 | 0.00 | 0.00 | 0.00 | 25 | 1011.2 |
| 20260507143012 | 86 | 216 | 1.7 | 5.2 | 0.00 | 0.00 | 0.00 | 25 | 1011.2 |
| 20260507142011 | 85 | 137 | 0.9 | 6.1 | 0.00 | 0.00 | 0.00 | 26 | 1011.5 |
| 20260507141010 | 86 | 220 | 1.7 | 5.2 | 0.00 | 0.00 | 0.00 | 25 | 1011.5 |
| 20260507140009 | 86 | 172 | 1.7 | 7.8 | 0.00 | 0.00 | 0.00 | 25 | 1011.5 |
| 20260507135001 | 85 | 157 | 1.7 | 8.7 | 0.00 | 0.00 | 0.00 | 26 | 1011.5 |
| 20260507134000 | 85 | 211 | 1.7 | 8.7 | 0.00 | 0.00 | 0.00 | 25 | 1011.5 |
| 20260507132959 | 85 | 196 | 0.9 | 8.7 | 0.00 | 0.00 | 0.00 | 25 | 1011.5 |
| 20260507131958 | 85 | 221 | 1.7 | 6.1 | 0.00 | 0.00 | 0.00 | 26 | 1011.5 |
| 20260507130956 | 85 | 244 | 1.7 | 6.1 | 0.00 | 0.00 | 0.00 | 25 | 1011.5 |
| 20260507125955 | 85 | 161 | 1.7 | 7.8 | 0.00 | 0.00 | 0.00 | 25 | 1011.5 |
| 20260507124923 | 85 | 237 | 1.7 | 7.0 | 0.00 | 0.00 | 0.00 | 25 | 1011.9 |
| 20260507123922 | 85 | 147 | 2.6 | 7.0 | 0.00 | 0.00 | 0.00 | 25 | 1011.9 |
| 20260507122921 | 85 | 239 | 0.9 | 9.6 | 0.00 | 0.00 | 0.00 | 26 | 1011.9 |
| 20260507120834 | 86 | 208 | 0.9 | 6.1 | 0.00 | 0.00 | 0.00 | 26 | 1011.9 |
| 20260507115833 | 85 | 200 | 1.7 | 8.7 | 0.00 | 0.00 | 0.00 | 26 | 1012.2 |
| 20260507114832 | 86 | 261 | 2.6 | 7.0 | 0.00 | 0.00 | 0.00 | 26 | 1012.2 |
| 20260507113657 | 85 | 249 | 1.7 | 5.2 | 0.00 | 0.00 | 0.00 | 27 | 1012.2 |
| 20260507112656 | 85 | 201 | 1.7 | 7.8 | 0.00 | 0.00 | 0.00 | 27 | 1012.2 |
| 20260507111621 | 86 | 244 | 1.7 | 8.7 | 0.00 | 0.00 | 0.00 | 27 | 1012.5 |
| 20260507110620 | 86 | 153 | 1.7 | 6.1 | 0.00 | 0.00 | 0.00 | 27 | 1012.5 |
| 20260507105619 | 85 | 28 | 1.7 | 10.4 | 0.00 | 0.00 | 0.00 | 28 | 1012.5 |
| 20260507104616 | 85 | 104 | 1.7 | 6.1 | 0.00 | 0.00 | 0.00 | 28 | 1012.5 |
| 20260507103615 | 86 | 258 | 1.7 | 7.0 | 0.00 | 0.00 | 0.00 | 27 | 1012.5 |
| 20260507102614 | 85 | 260 | 0.9 | 5.2 | 0.00 | 0.00 | 0.00 | 29 | 1012.5 |